Regional Weather Roundup
Issued by NWS Sioux Falls, SD

Home | Current Version | Previous Version | Text Only | Print | Product List | Glossary On
Versions: 1 2 3 4 5 6 7 8 9 10 11 12 13 14 15 16 17 18 19 20 21 22 23 24 25 26 27 28 29 30 31 32 33 34 35 36 37 38 39 40 41 42 43 44 45 46 47 48 49 50
000
ASUS43 KFSD 172010
RWRFSD

WEATHER ROUNDUP FOR SE SOUTH DAKOTA/SW MINNESOTA/NW IOWA
NATIONAL WEATHER SERVICE SIOUX FALLS SD
200 PM CST WED JAN 17 2018

NOTE: "FAIR" INDICATES FEW OR NO CLOUDS BELOW 12,000 FEET WITH NO
SIGNIFICANT WEATHER AND OR OBSTRUCTIONS TO VISIBILITY.


SDZ038>040-050-052>070-172100-
SOUTHEAST SOUTH DAKOTA

CITY           SKY/WX    TMP DP  RH WIND       PRES   REMARKS
BROOKINGS      SUNNY     27  15  61 SW13      30.16F WCI  16
CHAMBERLAIN    SUNNY     37  20  51 SW12      30.20F
HURON          SUNNY     33  18  53 S9        30.17F WCI  25
MADISON        FAIR      25  16  68 SW16G23   30.17F WCI  12
MITCHELL       SUNNY     32  18  56 SW10      30.22F WCI  24
SIOUX FALLS    SUNNY     28  15  58 SW13      30.21F WCI  17
WINNER         FAIR      39  20  46 W10       30.21F
YANKTON        SUNNY     35  16  45 SW15      30.24F WCI  25
$$

MNZ071-072-080-081-089-090-097-098-172100-
SOUTHWEST MINNESOTA

CITY           SKY/WX    TMP DP  RH WIND       PRES   REMARKS
FAIRMONT       SUNNY     26  15  63 SW21G28   30.20F WCI  12
JACKSON        SUNNY     27  14  59 SW22      30.19F WCI  12
LUVERNE        SUNNY     28  16  59 SW15      30.21F WCI  17
MARSHALL       SUNNY     28  14  55 SW24G39   30.09S WCI  14
MONTEVIDEO     SUNNY     37  16  41 W9        30.11F
PIPESTONE      SUNNY     23  12  63 W14       30.16F WCI  11
REDWOOD FALLS  SUNNY     27  15  61 SW12      30.13F WCI  17
WINDOM         SUNNY     25   7  46 SW21      30.15F WCI  10
WORTHINGTON    SUNNY     25  15  66 SW18G28   30.17F WCI  11
$$

IAZ001>003-012>014-020>022-031-032-NEZ013-014-SDZ071-172100-
NORTHWEST IOWA

CITY           SKY/WX    TMP DP  RH WIND       PRES   REMARKS
CHEROKEE       SUNNY     28  14  57 SW16G24   30.29F WCI  15
DENISON        SUNNY     27  12  54 SW18G25   30.36F WCI  13
ESTHERVILLE    SUNNY     24  14  65 SW24G31   30.21F WCI   8
LE MARS        SUNNY     30  14  51 S15G23    30.28F WCI  19
ORANGE CITY    SUNNY     28  18  64 SW17G23   30.25F WCI  16
SHELDON        SUNNY     27  16  63 SW15G22   30.22F WCI  15
SIOUX CITY     SUNNY     31  16  54 S12       30.32F WCI  22
SPENCER        SUNNY     27  14  58 SW20      30.24F WCI  13
STORM LAKE     SUNNY     25  14  63 SW23      30.27F WCI  10
$$

ABBREVIATIONS USED IN REMARKS
   TC - TEMPERATURE IN CELSIUS
  WCI - WIND CHILL INDEX
   HX - HEAT INDEX
  VSB - VISIBILITY





USA.gov is the U.S. government's official web portal to all federal, state and local government web resources and services.